Location: Cheyres
(46.8153°N, 6.7877°E)
Time: 22:05:10
(UTC+00:00)

Cosmos 1328 Rocket - Pass Details

Date: 20 September 2021
Orbit: 601 x 627 km, 82.5° (Epoch: 17 October)

Event Time Altitude Azimuth Distance (km) Brightness Sun altitude
Exits shadow 03:22:32 11° 175° (S) 1,873 5.8 -19.8°
Maximum altitude 03:26:36 62° 96° (E) 691 4.0 -19.2°
Drops below altitude 10° 03:30:53 10° 16° (NNE) 1,965 6.6 -18.5°
Sets 03:33:07 0° 13° (NNE) 2,871 7.5 -18.1°
